Wind_Speed
34 34 34 34 34 34 34 35 35 34 33 33 34 34 35 36 35 35 35 35 37 38 39 41 43 45 46 46 46 46 45 45 46 46 45 45 44 44
33 33 33 34 34 34 35 35 34 34 32 32 32 33 34 33 33 33 34 35 35 36 37 39 40 42 42 43 43 43 43 44 44 44 44 44 42 41
33 33 34 34 34 34 34 33 32 32 31 31 32 33 32 30 30 31 31 33 34 35 35 35 37 37 37 38 39 39 40 41 41 41 41 41 40 39
32 33 33 33 33 33 32 31 30 31 31 31 31 31 30 29 29 30 31 31 32 32 33 34 34 34 33 33 34 35 36 37 38 38 38 38 38 38
31 31 31 31 31 31 30 30 30 30 29 29 29 28 28 27 28 29 30 31 31 32 32 32 31 30 30 31 32 32 33 34 35 35 35 35 35 36
30 29 30 29 29 29 29 29 29 29 28 28 28 27 27 26 27 28 28 29 30 30 30 30 29 29 30 30 30 30 30 31 32 32 32 32 32 33
29 29 29 29 28 29 28 28 28 28 28 28 27 26 25 24 26 27 28 27 28 28 28 28 28 28 29 29 28 27 28 28 29 29 28 29 29 29
28 28 29 29 28 28 28 27 28 28 27 27 25 24 23 24 26 26 26 26 26 27 26 26 26 27 27 27 27 27 27 27 28 27 27 27 27 27
28 28 28 28 28 28 28 28 28 27 25 24 23 22 22 24 24 24 24 23 24 25 25 25 25 25 25 25 26 25 25 26 26 25 25 25 25 25
27 27 28 27 27 28 28 27 25 24 24 23 22 22 22 22 23 23 23 23 23 24 25 25 24 24 23 24 25 26 26 25 25 24 24 24 23 22
27 27 28 27 27 27 26 24 23 22 22 21 20 21 21 22 23 23 22 22 23 24 25 25 24 24 24 24 25 25 25 24 24 23 22 21 21 21
26 27 26 26 25 24 23 22 21 21 20 20 20 21 21 21 22 22 22 23 24 25 25 24 24 24 25 24 24 24 23 23 23 22 21 21 20 20
25 24 24 23 22 22 22 20 20 20 19 19 20 20 20 21 22 22 23 24 25 25 25 24 24 25 25 24 23 23 23 22 22 21 21 20 19 19
23 22 22 21 21 21 20 19 19 19 18 19 19 19 19 20 22 23 24 25 25 25 25 25 25 25 24 22 21 21 22 21 21 20 19 19 18 18
23 22 21 20 19 20 20 19 19 18 19 19 19 19 20 21 22 23 24 25 25 25 25 25 25 25 24 22 21 20 20 20 20 19 19 18 18 17
22 20 20 19 19 20 19 18 18 18 19 19 19 20 21 22 24 25 25 25 25 24 24 24 23 23 22 21 20 19 19 18 18 17 17 17 17 16
20 20 20 19 19 19 18 18 18 18 18 19 20 21 22 23 25 26 26 26 24 23 22 22 22 21 21 20 19 19 19 18 18 17 17 16 16 15
19 19 20 20 19 18 18 17 17 18 18 19 21 22 23 24 25 26 25 25 23 22 22 21 21 20 20 18 18 18 18 18 17 16 15 15 14 12
20 19 19 19 18 17 17 17 17 18 19 20 21 22 23 25 25 25 25 23 22 21 20 20 19 19 18 17 16 17 17 17 16 15 14 13 11 8
19 19 18 17 17 17 18 18 18 19 19 20 21 23 24 25 25 25 23 22 21 20 19 19 19 18 17 17 16 16 17 16 15 14 12 10 9 7
18 18 17 17 18 18 19 19 19 19 20 21 22 24 25 26 26 25 23 22 21 20 19 19 18 17 17 17 17 17 16 15 13 12 10 9 8 7
18 18 19 19 19 19 19 20 20 20 21 22 23 25 26 26 26 25 23 21 20 19 19 19 18 17 16 17 17 17 15 13 11 11 9 8 7 6
19 19 20 20 20 20 20 21 21 21 22 23 24 25 26 26 25 24 22 20 19 19 19 18 17 17 17 17 16 16 14 12 11 9 8 7 6 3
Wind_Direction
293 293 293 292 293 294 294 295 295 294 292 289 288 286 287 283 280 279 281 282 283 283 284 282 282 282 280 280 279 279 279 279 281 283 283 283 281 280
292 293 293 293 294 294 294 295 294 293 292 290 289 290 290 287 282 281 283 284 285 287 288 287 286 284 282 281 280 280 281 281 282 283 283 283 281 278
291 293 293 294 293 293 294 294 293 293 292 292 290 291 291 288 285 286 286 287 288 290 291 291 290 289 286 284 282 282 281 282 283 284 284 283 280 277
291 292 294 295 294 294 294 293 293 293 293 293 292 292 291 290 289 290 289 292 292 293 293 294 294 293 290 288 287 287 285 285 286 286 284 283 281 278
291 293 294 295 295 295 295 294 293 294 294 294 294 294 291 290 290 290 292 294 293 295 296 297 296 296 295 294 292 291 289 288 288 288 287 285 283 280
291 292 292 294 295 296 296 295 294 293 294 295 295 293 291 290 290 290 291 294 296 297 298 298 297 296 297 298 296 294 294 294 292 292 290 287 286 284
290 291 292 294 295 296 296 295 294 293 295 294 294 293 290 292 292 291 291 294 298 298 301 300 298 296 297 299 299 298 299 299 298 297 294 289 287 286
289 289 291 293 294 295 297 296 296 295 294 294 294 292 291 293 295 296 295 297 298 298 300 301 300 298 299 300 300 300 301 301 300 300 297 294 290 288
289 290 291 292 292 293 295 296 296 296 294 293 291 291 294 293 295 297 298 302 304 303 303 303 302 302 302 302 302 302 302 303 302 301 299 297 296 292
289 289 290 292 292 292 293 294 295 295 292 292 290 292 295 296 298 302 303 304 307 308 308 308 306 305 302 302 303 302 302 302 303 302 300 297 295 293
289 289 290 291 293 293 292 292 292 293 293 293 292 294 297 301 303 303 305 308 310 310 309 310 308 307 307 306 305 304 302 300 303 304 301 297 295 295
289 289 291 292 292 292 292 292 291 293 293 293 293 295 298 302 305 305 306 309 311 311 310 310 308 307 307 307 308 308 306 303 303 303 300 295 293 293
291 291 292 293 293 294 293 291 291 292 293 292 294 296 297 302 306 307 309 311 312 311 310 310 309 308 308 309 309 308 307 306 306 304 301 299 295 294
292 292 291 291 294 292 292 291 291 291 291 294 297 299 301 304 308 309 310 311 311 309 308 308 309 309 308 307 308 307 308 307 307 306 303 302 300 297
291 290 289 289 291 292 293 293 291 290 292 295 297 301 304 307 310 310 311 311 309 309 309 309 309 309 308 308 306 306 307 308 309 305 302 303 304 301
288 287 287 288 290 292 294 293 291 291 291 293 297 301 303 306 308 309 311 311 310 309 309 309 309 309 309 309 309 309 309 310 310 308 305 306 306 303
285 288 290 291 291 291 290 289 288 288 291 296 299 302 304 308 309 310 310 310 310 310 310 311 309 310 310 310 310 310 311 312 313 312 311 311 309 304
283 287 289 289 288 288 288 290 290 290 293 298 301 303 306 308 309 310 311 310 309 309 309 311 310 311 312 312 312 312 313 315 316 314 312 313 313 305
284 285 286 285 285 286 288 291 292 292 294 297 301 304 306 308 309 310 310 309 308 308 309 310 310 310 313 314 315 315 315 316 316 314 313 315 315 307
281 280 280 280 283 286 289 291 293 295 297 299 301 304 307 310 310 311 310 309 308 308 308 308 309 309 312 316 316 316 316 317 317 315 313 316 317 309
278 276 276 280 284 287 289 291 293 295 298 300 303 305 307 308 309 309 308 307 307 307 307 307 308 309 311 316 318 318 316 316 317 317 318 318 312 299
276 273 275 280 284 287 290 292 294 296 299 301 305 307 308 307 307 305 305 304 304 305 306 307 307 308 312 315 317 318 317 316 316 318 317 311 301 285
277 275 277 280 283 286 291 294 296 298 300 302 305 306 307 307 306 304 302 301 301 301 303 304 305 306 309 312 314 318 318 318 317 317 315 310 305 290
Height
5665 5662 5659 5656 5653 5650 5647 5643 5641 5638 5637 5633 5628 5625 5622 5620 5618 5616 5614 5613 5612 5610 5608 5606 5604 5602 5600 5599 5597 5596 5595 5594 5592 5590 5587 5585 5583 5581
5658 5655 5651 5648 5645 5642 5639 5635 5632 5629 5627 5625 5621 5618 5614 5611 5609 5608 5607 5605 5603 5601 5598 5596 5593 5590 5588 5586 5584 5583 5582 5580 5578 5576 5574 5572 5570 5568
5650 5647 5644 5640 5637 5634 5630 5627 5624 5621 5619 5617 5614 5611 5607 5605 5603 5602 5600 5597 5595 5593 5590 5586 5583 5580 5577 5575 5573 5571 5569 5567 5566 5564 5561 5559 5557 5556
5642 5639 5636 5633 5629 5626 5623 5620 5617 5614 5611 5609 5607 5604 5601 5599 5597 5595 5593 5590 5587 5585 5582 5578 5575 5572 5568 5566 5563 5561 5559 5557 5555 5553 5550 5548 5546 5544
5634 5632 5628 5625 5622 5619 5616 5613 5610 5607 5604 5602 5600 5598 5595 5593 5591 5589 5586 5584 5581 5577 5574 5571 5568 5564 5561 5558 5555 5552 5550 5548 5545 5543 5540 5538 5537 5535
5627 5624 5621 5618 5615 5612 5609 5606 5603 5601 5598 5596 5594 5592 5590 5587 5585 5583 5581 5578 5575 5571 5568 5564 5561 5558 5555 5551 5548 5545 5542 5539 5536 5534 5532 5530 5528 5526
5619 5617 5614 5611 5608 5605 5602 5600 5597 5595 5592 5590 5588 5586 5584 5582 5580 5577 5575 5572 5569 5565 5562 5559 5556 5552 5549 5545 5541 5538 5535 5532 5529 5526 5524 5522 5520 5518
5613 5610 5608 5605 5602 5599 5596 5593 5591 5588 5586 5584 5582 5580 5578 5576 5574 5572 5569 5567 5564 5561 5557 5553 5549 5546 5542 5540 5536 5533 5530 5526 5523 5521 5518 5516 5514 5512
5605 5603 5601 5598 5596 5593 5590 5588 5585 5582 5580 5578 5576 5575 5573 5571 5569 5567 5564 5561 5558 5554 5551 5548 5544 5541 5537 5534 5531 5528 5525 5521 5518 5515 5512 5510 5508 5506
5598 5596 5594 5592 5589 5587 5584 5582 5579 5577 5574 5573 5572 5570 5568 5566 5564 5562 5559 5557 5554 5550 5546 5543 5540 5536 5533 5530 5526 5523 5519 5516 5513 5510 5507 5505 5502 5501
5591 5589 5587 5585 5583 5580 5578 5576 5574 5572 5570 5568 5567 5566 5564 5562 5559 5557 5554 5552 5550 5546 5542 5538 5534 5531 5528 5525 5521 5517 5514 5511 5508 5505 5502 5500 5497 5496
5585 5583 5581 5579 5577 5574 5573 5571 5569 5567 5566 5564 5563 5561 5560 5557 5555 5552 5550 5547 5544 5541 5537 5533 5529 5526 5523 5520 5516 5512 5509 5505 5502 5499 5497 5495 5493 5491
5579 5578 5575 5573 5571 5570 5568 5566 5565 5563 5562 5561 5559 5557 5555 5553 5550 5548 5545 5542 5538 5535 5532 5528 5524 5521 5517 5514 5511 5507 5503 5500 5497 5494 5492 5490 5488 5486
5574 5572 5570 5568 5566 5565 5563 5562 5560 5559 5558 5557 5555 5553 5551 5549 5546 5543 5540 5537 5533 5530 5526 5522 5519 5515 5512 5509 5506 5503 5499 5496 5493 5490 5488 5485 5484 5482
5569 5567 5565 5564 5562 5560 5559 5557 5556 5555 5554 5553 5551 5549 5547 5544 5542 5539 5535 5532 5528 5524 5520 5517 5513 5510 5506 5503 5501 5498 5495 5492 5489 5486 5484 5481 5479 5478
5564 5562 5560 5559 5557 5556 5554 5553 5552 5551 5550 5548 5546 5545 5542 5540 5537 5534 5530 5526 5523 5519 5515 5511 5508 5505 5501 5498 5495 5493 5490 5487 5484 5481 5479 5477 5475 5473
5559 5557 5555 5554 5553 5551 5550 5549 5548 5546 5545 5543 5541 5540 5537 5535 5532 5528 5525 5521 5517 5514 5510 5507 5503 5500 5497 5494 5491 5488 5485 5483 5480 5477 5475 5473 5471 5469
5554 5552 5551 5549 5548 5547 5546 5544 5543 5542 5540 5539 5537 5534 5532 5530 5527 5523 5519 5515 5512 5509 5505 5502 5499 5496 5494 5490 5487 5484 5481 5479 5476 5474 5471 5469 5467 5465
5548 5547 5546 5544 5543 5542 5541 5540 5539 5537 5536 5534 5532 5529 5527 5524 5521 5517 5514 5510 5507 5504 5501 5498 5495 5492 5490 5487 5484 5480 5477 5475 5473 5470 5468 5466 5464 5463
5543 5542 5541 5540 5539 5538 5537 5536 5534 5533 5531 5529 5526 5524 5521 5518 5515 5512 5508 5505 5502 5500 5497 5494 5491 5488 5485 5483 5480 5478 5474 5471 5469 5467 5465 5463 5462 5461
5537 5537 5536 5535 5534 5533 5532 5531 5529 5528 5526 5523 5521 5519 5516 5513 5509 5506 5503 5500 5498 5495 5493 5490 5487 5484 5481 5479 5477 5474 5471 5468 5466 5464 5463 5461 5460 5460
5532 5532 5531 5531 5530 5528 5527 5526 5524 5523 5520 5518 5516 5513 5510 5506 5504 5500 5498 5495 5493 5490 5488 5486 5483 5480 5478 5476 5473 5471 5468 5465 5463 5461 5460 5459 5459 5458
5527 5526 5526 5525 5524 5523 5522 5520 5519 5517 5515 5512 5510 5507 5504 5501 5498 5495 5492 5490 5488 5486 5483 5481 5479 5477 5474 5472 5470 5467 5465 5463 5461 5460 5458 5456 5456 5455